Greenville, SC

3:32 AM EST on November 21, 2017 (GMT -0500)
Donaldson Center

Weather History for KGYH - October, 2012

Change the Weather History Date:

Thursday, October 11, 2012

  Actual Average (KGMU) Record (KGMU)
Temperature  
Mean Temperature 58 °F -  
Max Temperature 69 °F 70 °F 89 °F (2017)
Min Temperature 46 °F 51 °F 39 °F (2000)
Degree Days  
Heating Degree Days 8    
Growing Degree Days 8 (Base 50)    
Moisture  
Dew Point 46 °F    
Average Humidity 74    
Maximum Humidity 94    
Minimum Humidity 40    
Precipitation  
Precipitation 0.00 in - - ()
Sea Level Pressure  
Sea Level Pressure 30.22 in    
Wind  
Wind Speed 3 mph (NE)    
Max Wind Speed 10 mph    
Max Gust Speed -    
Visibility 10 miles    
Events      
Averages and records for this station are not official NWS values.
T = Trace of Precipitation, MM = Missing Value Source: NWS Daily Summary

Daily Weather History Graph

Daily Weather History Graph

Search for Another Location

Airport or City:

Trip Planner

Search our weather history database for the weather conditions in past years. The results will help you decide how hot, cold, wet, or windy it might be!

Date:

Astronomy

Oct. 11, 2012 Rise Set
Actual Time 7:32 AM EDT 6:59 PM EDT
Civil Twilight 7:07 AM EDT 7:24 PM EDT
Nautical Twilight 6:37 AM EDT 7:53 PM EDT
Astronomical Twilight 6:08 AM EDT 8:23 PM EDT
Moon 3:19 AM EDT (10/11) 4:27 PM EDT (10/11)
Length of Visible Light 12h 17m
Length of Day
11h 26m
Waning Crescent, 18% of the Moon is Illuminated
Oct 11
Waning Crescent
Oct 15
New
Oct 21
First Quarter
Oct 29
Full
Nov 6
Last Quarter

Hourly Weather History & Observations

Time (EDT) Temp. Windchill Dew Point Humidity Pressure Visibility Wind Dir Wind Speed Gust Speed Precip Events Conditions
12:15 AM 53.6 °F - 48.2 °F 82% 30.16 in 10.0 mi Calm Calm - N/A   Clear
12:35 AM 51.8 °F - 46.4 °F 82% 30.16 in 10.0 mi Calm Calm - N/A   Clear
12:55 AM 51.8 °F - 48.2 °F 88% 30.17 in 10.0 mi North 3.5 mph - N/A   Clear
1:15 AM 55.4 °F - 48.2 °F 77% 30.18 in 10.0 mi NNE 4.6 mph - N/A   Clear
1:35 AM 55.4 °F - 48.2 °F 77% 30.18 in 10.0 mi NNE 5.8 mph - N/A   Clear
1:55 AM 55.4 °F - 46.4 °F 72% 30.18 in 10.0 mi NNE 5.8 mph - N/A   Clear
2:35 AM 55.4 °F - 46.4 °F 72% 30.17 in 10.0 mi NNE 8.1 mph - N/A   Clear
2:55 AM 55.4 °F - 46.4 °F 72% 30.17 in 10.0 mi North 4.6 mph - N/A   Clear
3:35 AM 53.6 °F - 44.6 °F 72% 30.17 in 10.0 mi NE 4.6 mph - N/A   Clear
3:55 AM 53.6 °F - 44.6 °F 72% 30.17 in 10.0 mi NNE 4.6 mph - N/A   Clear
4:15 AM 51.8 °F - 44.6 °F 76% 30.17 in 10.0 mi NE 4.6 mph - N/A   Clear
4:35 AM 50.0 °F - 44.6 °F 82% 30.18 in 10.0 mi East 4.6 mph - N/A   Clear
4:55 AM 48.2 °F - 42.8 °F 82% 30.18 in 10.0 mi ENE 3.5 mph - N/A   Clear
5:15 AM 48.2 °F - 44.6 °F 87% 30.19 in 10.0 mi Calm Calm - N/A   Clear
5:35 AM 50.0 °F - 42.8 °F 76% 30.20 in 10.0 mi ENE 3.5 mph - N/A   Clear
5:55 AM 50.0 °F - 44.6 °F 82% 30.21 in 10.0 mi NE 4.6 mph - N/A   Clear
6:15 AM 48.2 °F - 44.6 °F 87% 30.22 in 10.0 mi ENE 5.8 mph - N/A   Clear
6:35 AM 46.4 °F 45.2 °F 42.8 °F 87% 30.23 in 10.0 mi ENE 3.5 mph - N/A   Clear
6:47 AM 48.2 °F - 44.6 °F 87% 30.23 in 10.0 mi ENE 4.6 mph - N/A   Clear
7:47 AM 46.4 °F 45.2 °F 42.8 °F 87% 30.25 in 10.0 mi ENE 3.5 mph - N/A   Clear
8:47 AM 51.8 °F - 44.6 °F 76% 30.28 in 10.0 mi ENE 4.6 mph - N/A   Clear
9:47 AM 57.2 °F - 44.6 °F 63% 30.30 in 10.0 mi ENE 10.4 mph - N/A   Clear
10:47 AM 59.0 °F - 42.8 °F 55% 30.31 in 10.0 mi East 9.2 mph - N/A   Clear
12:47 PM 62.6 °F - 44.6 °F 52% 30.30 in 10.0 mi SE 3.5 mph - N/A   Clear
1:47 PM 66.2 °F - 44.6 °F 46% 30.27 in 10.0 mi South 6.9 mph - N/A   Clear
2:47 PM 66.2 °F - 44.6 °F 46% 30.25 in 10.0 mi Calm Calm - N/A   Clear
3:47 PM 69.8 °F - 44.6 °F 40% 30.24 in 10.0 mi Calm Calm - N/A   Clear
4:47 PM 69.8 °F - 44.6 °F 40% 30.23 in 10.0 mi South 4.6 mph - N/A   Clear
6:47 PM 62.6 °F - 50.0 °F 63% 30.24 in 10.0 mi West 3.5 mph - N/A   Clear
7:47 PM 57.2 °F - 48.2 °F 72% 30.24 in 10.0 mi Calm Calm - N/A   Clear
9:15 PM 53.6 °F - 48.2 °F 82% 30.25 in 10.0 mi Calm Calm - N/A   Clear
9:55 PM 53.6 °F - 50.0 °F 88% 30.25 in 10.0 mi Calm Calm - N/A   Clear
10:15 PM 51.8 °F - 50.0 °F 94% 30.25 in 10.0 mi Calm Calm - N/A   Clear
10:55 PM 55.4 °F - 50.0 °F 82% 30.25 in 10.0 mi Calm Calm - N/A   Clear
11:15 PM 55.4 °F - 48.2 °F 77% 30.24 in 10.0 mi Calm Calm - N/A   Clear
11:35 PM 53.6 °F - 50.0 °F 88% 30.24 in 10.0 mi Calm Calm - N/A   Clear
11:55 PM 53.6 °F - 50.0 °F 88% 30.24 in 10.0 mi Calm Calm - N/A   Clear